Regional Weather Roundup
Issued by NWS

Home | Current Version | Previous Version | Graphics & Text | Print | Product List | Glossary On
Versions: 1 2 3 4 5 6 7 8 9 10 11 12 13 14 15 16 17 18 19 20 21 22 23 24 25 26 27 28 29 30 31 32 33 34 35 36 37 38 39 40 41 42 43 44 45 46 47 48 49 50
000
ASUS43 KLMK 081102
RWRKY
KENTUCKY REGIONAL WEATHER ROUNDUP
NATIONAL WEATHER SERVICE LOUISVILLE KY
600 AM EST THU DEC 08 2016

NOTE "FAIR" INDICATES FEW OR NO CLOUDS BELOW 12,000 FEET
WITH NO SIGNIFICANT WEATHER AND/OR OBSTRUCTIONS TO VISIBILITY.

KYZ001>023-026-027-061>063-070>075-081200-
WESTERN AND SOUTH CENTRAL KENTUCKY

CITY           SKY/WX    TMP DP  RH WIND       PRES   REMARKS
PADUCAH        MOCLDY    30  20  66 NW10      30.38R WCI  21
HENDERSON      PTCLDY    28  18  64 W14G20    30.36R WCI  17
OWENSBORO      CLOUDY    30  22  72 NW12      30.34R WCI  20
HOPKINSVILLE   PTCLDY    32  21  64 NW7       30.33R WCI  25
BOWLING GREEN  CLOUDY    33  21  61 NW7       30.33R WCI  27
GLASGOW        NOT AVBL
$$

KYZ024-025-028>034-038-045-046-053-081200-
NORTH CENTRAL KENTUCKY

CITY           SKY/WX    TMP DP  RH WIND       PRES   REMARKS
LOUISVILLE/SDF CLOUDY    31  17  56 NW16      30.28R WCI  20
LOUISVILLE/LOU CLOUDY    31  20  63 W9        30.28R WCI  23
FORT KNOX      CLOUDY    29  20  69 W10       30.26R WCI  20
$$

KYZ035>037-039>044-047>052-055>060-089>105-081200-
NORTHEAST KENTUCKY

CITY           SKY/WX    TMP DP  RH WIND       PRES   REMARKS
LEXINGTON      CLOUDY    31  20  63 W7        30.23R WCI  24
COVINGTON      MOCLDY    27  20  75 W10       30.20R WCI  17
FRANKFORT      CLOUDY    31  19  61 W8        30.23R WCI  23
$$

KYZ054-064>069-076>088-106>120-081200-
SOUTHEAST KENTUCKY

CITY           SKY/WX    TMP DP  RH WIND       PRES   REMARKS
JACKSON        CLOUDY    32  21  64 VRB5      30.19R WCI  27
LONDON         CLOUDY    32  21  64 NW5       30.22R WCI  27
SOMERSET       CLOUDY    32  21  64 NW5       30.27R WCI  27
MIDDLESBORO    CLOUDY    36  20  52 N6        30.22R WCI  31
MONTICELLO     CLOUDY    33  24  69 NW9       30.28R WCI  25
$$





USA.gov is the U.S. government's official web portal to all federal, state and local government web resources and services.